Location: Aufkirchen
(47.9603°N, 11.3653°E)
Time: 06:24:15
(UTC+01:00)

Transit 2A - Pass Details

Date: 02 December 2020
Orbit: 599 x 960 km, 66.7° (Epoch: 25 January)

Event Time Altitude Azimuth Distance (km) Brightness Sun altitude
Rises 16:23:55 0° 196° (SSW) 3,624 10.3 -0.9°
Reaches altitude 10° 16:26:34 10° 192° (SSW) 2,672 9.5 -1.3°
Maximum altitude 16:32:38 53° 117° (ESE) 1,128 6.7 -2.2°
Drops below altitude 10° 16:38:24 10° 43° (NE) 2,539 8.1 -3.0°
Enters shadow 16:40:24 - 39° (NE) 3,269 8.7 -3.3°
Sets 16:40:51 0° 38° (NE) 3,431 - -3.4°
